Location: Mountain View
(37.3861°N, 122.0839°W)
Time: 08:54:52
(UTC-07:00)

ISS - Visible Passes

Search period start: 23 August 2017 00:00
Search period end: 02 September 2017 00:00
Orbit: 401 x 408 km, 51.6° (Epoch: 24 August)

Date Brightness Start Highest point End Pass type
(mag) Time Alt. Az. Time Alt. Az. Time Alt. Az.
29 Aug -0.9 05:53:54 10° SSE 05:55:17 12° SE 05:56:40 10° ESE visible
31 Aug -2.2 05:43:49 10° SSW 05:46:45 31° SE 05:49:42 10° ENE visible
01 Sep -1.4 04:53:35 14° SSE 04:54:33 15° SE 04:56:34 10° E visible
